Regional Weather Roundup
Issued by NWS

Home | Current Version | Previous Version | Text Only | Print | Product List | Glossary Off
Versions: 1 2 3 4 5 6 7 8 9 10 11 12 13 14 15 16 17 18 19 20 21 22 23 24 25 26 27 28 29 30 31 32 33 34 35 36 37 38 39 40 41 42 43 44 45 46 47 48 49 50

488
ASUS45 KSLC 270610
RWRUT

UTAH REGIONAL WEATHER ROUNDUP
NATIONAL WEATHER SERVICE SALT LAKE CITY UT
1200 AM MDT TUE SEP 27 2016

UTZ001>011-023>025-270700-

NORTHERN UTAH

CITY           SKY/WX    TMP DP  RH WIND       PRES   REMARKS
BRIGHAM CITY     N/A     54  49  82 CALM      30.27R
HILL AFB       CLEAR     58  45  61 E10       30.28S
LOGAN          CLEAR     55  48  77 CALM      30.27S
OGDEN          CLEAR     56  46  69 S8        30.26S
PROVO AIRPORT  CLEAR     54  44  69 CALM      30.27F
SALT LAKE CITY CLEAR     59  50  72 CALM      30.25S
VERNAL         CLEAR     52  44  74 W6        30.31S
WENDOVER       CLEAR     55  45  67 CALM      30.26S
HEBER CITY     CLEAR     45  39  81 CALM      30.33R
WEST JORDAN    CLEAR     55  46  71 CALM      30.28S

$$

UTZ012>022-026-027-270700-

SOUTHERN/CENTRAL UTAH

CITY           SKY/WX    TMP DP  RH WIND       PRES   REMARKS
BLANDING       CLEAR     52  35  52 CALM      30.38S
BRYCE CANYON   CLEAR     41  33  73 W9        30.42S
CEDAR CITY     CLEAR     50  36  58 W3        30.30R
DELTA          CLEAR     55  46  71 CALM      30.27S
MILFORD        CLEAR     51  37  58 CALM      30.27S
MOAB/CYNLANDS  CLEAR     55  39  54 W5        30.23S
PRICE          CLEAR     52  41  66 N9        30.33S
ST GEORGE      CLEAR     70  37  30 NW6       30.13S

$$

REGIONAL REPORTS     COLORADO/ARIZONA

CITY           SKY/WX    TMP DP  RH WIND       PRES   REMARKS
CRAIG, CO      CLOUDY    41  36  82 CALM      30.37S
GRAND JUNCTION CLEAR     57  40  52 SE6       30.26R
RIFLE          CLEAR     52  39  61 CALM      30.32R
MONTROSE       CLEAR     51  38  60 SE9       30.34S
CORTEZ         CLEAR     46  39  76 NE5       30.33R
PAGE, AZ       CLEAR     63  36  36 CALM      30.21S
GRAND CANYON   PTCLDY    46  37  71 NE5       30.34S
KINGMAN        PTCLDY    68  38  33 SE13      30.11F
FLAGSTAFF      PTCLDY    54  32  43 NE3       30.34R

$$

REGIONAL REPORTS    NEVADA/IDAHO/WYOMING

CITY           SKY/WX    TMP DP  RH WIND       PRES   REMARKS
LAS VEGAS, NV  CLEAR     78  31  17 S5        30.03R
ELY            CLEAR     45  34  65 CALM      30.35R
ELKO           CLEAR     55  41  59 CALM      30.26R
POCATELLO, ID  CLEAR     49  42  77 NE3       30.27R
BURLEY         CLEAR     46  45  96 N3        30.22S
EVANSTON, WY   CLOUDY    55  35  47 CALM      30.40S
ROCK SPRINGS   CLOUDY    51  40  65 S6        30.38F

$$




USA.gov is the U.S. government's official web portal to all federal, state and local government web resources and services.